When you browse on this site, cookies collect data to enhance your experience and personalize the content and advertising you see.
Visit our Privacy Policy to learn more. By continuing to use the site, you agree to this use of cookies and data.
  • In Sweden
  • List of Countries
  • For 7 days
  • Water Temperature
  • Satellite Maps
  • Weather Map
  • Weather Widgets
  • user-avatar
    Login

    Hourly Weather Brisbane

    Today, 17 June, Monday

    Time Temperature Precipitation Wind Pressure Humidity
    00:00 +19°C° 0.1 mm 1 mps 760 mmHg 87%
    01:00 +19°C° 0.1 mm 1 mps 760 mmHg 86%
    02:00 +18°C° 0.2 mm 2 mps 760 mmHg 84%
    03:00 +17°C° 0.2 mm 3 mps 760 mmHg 82%
    04:00 +17°C° 0 mm 2 mps 760 mmHg 84%
    05:00 +16°C° 0 mm 3 mps 760 mmHg 80%
    06:00 +14°C° 0 mm 3 mps 760 mmHg 76%
    07:00 +13°C° 0 mm 4 mps 761 mmHg 72%
    08:00 +14°C° 0 mm 4 mps 761 mmHg 63%
    09:00 +17°C° 0 mm 4 mps 761 mmHg 55%
    10:00 +19°C° 0 mm 3 mps 761 mmHg 48%
    11:00 +20°C° 0 mm 3 mps 761 mmHg 43%
    12:00 +21°C° 0 mm 3 mps 760 mmHg 39%
    13:00 +22°C° 0 mm 4 mps 760 mmHg 34%
    14:00 +21°C° 0 mm 3 mps 759 mmHg 36%
    15:00 +21°C° 0 mm 2 mps 759 mmHg 37%
    16:00 +21°C° 0 mm 1 mps 760 mmHg 38%
    17:00 +19°C° 0 mm 2 mps 760 mmHg 42%
    18:00 +17°C° 0 mm 2 mps 760 mmHg 46%
    19:00 +16°C° 0 mm 2 mps 761 mmHg 50%
    20:00 +15°C° 0 mm 2 mps 761 mmHg 53%
    21:00 +14°C° 0 mm 2 mps 761 mmHg 56%
    22:00 +14°C° 0 mm 2 mps 761 mmHg 58%
    23:00 +13°C° 0 mm 2 mps 761 mmHg 60%

    Tomorrow, 18 June, Tuesday

    Time Temperature Precipitation Wind Pressure Humidity
    00:00 +13°C° 0 mm 2 mps 761 mmHg 62%
    01:00 +12°C° 0 mm 2 mps 761 mmHg 64%
    02:00 +12°C° 0 mm 2 mps 761 mmHg 65%
    03:00 +10°C° 0 mm 2 mps 761 mmHg 66%
    04:00 +10°C° 0 mm 2 mps 761 mmHg 67%
    05:00 +10°C° 0 mm 2 mps 761 mmHg 68%
    06:00 +10°C° 0 mm 2 mps 761 mmHg 69%
    07:00 +10°C° 0 mm 2 mps 761 mmHg 70%
    08:00 +13°C° 0 mm 2 mps 761 mmHg 62%
    09:00 +16°C° 0 mm 2 mps 761 mmHg 55%
    10:00 +18°C° 0 mm 2 mps 761 mmHg 47%
    11:00 +19°C° 0 mm 2 mps 761 mmHg 43%
    12:00 +21°C° 0 mm 2 mps 760 mmHg 40%
    13:00 +23°C° 0 mm 2 mps 760 mmHg 36%
    14:00 +23°C° 0 mm 1 mps 760 mmHg 39%
    15:00 +22°C° 0 mm 1 mps 759 mmHg 43%
    16:00 +22°C° 0 mm 1 mps 759 mmHg 46%
    17:00 +20°C° 0 mm 1 mps 760 mmHg 49%
    18:00 +19°C° 0 mm 1 mps 760 mmHg 53%
    19:00 +16°C° 0 mm 1 mps 761 mmHg 56%
    20:00 +16°C° 0 mm 1 mps 761 mmHg 58%
    21:00 +15°C° 0 mm 1 mps 761 mmHg 61%
    22:00 +15°C° 0 mm 1 mps 761 mmHg 63%
    23:00 +14°C° 0 mm 1 mps 761 mmHg 65%

    Day after tomorrow, 19 June, Wednesday

    Time Temperature Precipitation Wind Pressure Humidity
    00:00 +14°C° 0 mm 2 mps 761 mmHg 67%
    01:00 +14°C° 0 mm 2 mps 760 mmHg 69%
    02:00 +13°C° 0 mm 2 mps 760 mmHg 71%
    03:00 +13°C° 0 mm 2 mps 760 mmHg 73%
    04:00 +13°C° 0 mm 2 mps 760 mmHg 75%
    05:00 +13°C° 0 mm 2 mps 761 mmHg 76%
    06:00 +12°C° 0 mm 2 mps 761 mmHg 77%
    07:00 +12°C° 0 mm 2 mps 761 mmHg 78%
    08:00 +15°C° 0 mm 2 mps 762 mmHg 71%
    09:00 +17°C° 0 mm 2 mps 762 mmHg 63%
    10:00 +19°C° 0 mm 2 mps 762 mmHg 56%
    11:00 +20°C° 0 mm 2 mps 761 mmHg 53%
    12:00 +23°C° 0 mm 2 mps 760 mmHg 50%
    13:00 +24°C° 0 mm 1 mps 760 mmHg 47%
    14:00 +24°C° 0 mm 2 mps 760 mmHg 51%
    15:00 +23°C° 0 mm 2 mps 760 mmHg 55%
    16:00 +21°C° 0 mm 2 mps 760 mmHg 59%
    17:00 +20°C° 0.1 mm 3 mps 761 mmHg 66%
    18:00 +19°C° 0.1 mm 3 mps 761 mmHg 72%
    19:00 +17°C° 0.1 mm 3 mps 762 mmHg 78%
    20:00 +17°C° 0 mm 3 mps 762 mmHg 80%
    21:00 +16°C° 0 mm 3 mps 762 mmHg 81%
    22:00 +16°C° 0 mm 3 mps 762 mmHg 83%
    23:00 +16°C° 0 mm 3 mps 762 mmHg 84%

    20 June, Thursday

    Time Temperature Precipitation Wind Pressure Humidity
    00:00 +14°C° 0 mm 3 mps 762 mmHg 85%
    01:00 +15°C° 0 mm 2 mps 762 mmHg 86%
    02:00 +15°C° 0 mm 2 mps 762 mmHg 87%
    03:00 +14°C° 0 mm 2 mps 762 mmHg 87%
    04:00 +14°C° 0 mm 2 mps 762 mmHg 88%
    05:00 +14°C° 0 mm 2 mps 762 mmHg 86%
    06:00 +14°C° 0 mm 2 mps 763 mmHg 84%
    07:00 +14°C° 0 mm 2 mps 763 mmHg 82%
    08:00 +15°C° 0 mm 2 mps 763 mmHg 78%
    09:00 +16°C° 0 mm 2 mps 763 mmHg 73%
    10:00 +17°C° 0 mm 2 mps 763 mmHg 69%
    11:00 +18°C° 0 mm 2 mps 763 mmHg 67%
    12:00 +18°C° 0 mm 2 mps 762 mmHg 65%
    13:00 +19°C° 0 mm 2 mps 762 mmHg 63%
    14:00 +19°C° 0 mm 2 mps 761 mmHg 65%
    15:00 +18°C° 0 mm 2 mps 761 mmHg 66%
    16:00 +18°C° 0 mm 2 mps 761 mmHg 68%
    17:00 +17°C° 0 mm 2 mps 762 mmHg 70%
    18:00 +18°C° 0 mm 1 mps 762 mmHg 71%
    19:00 +18°C° 0 mm 1 mps 763 mmHg 73%
    20:00 +16°C° 0 mm 1 mps 763 mmHg 75%
    21:00 +16°C° 0 mm 2 mps 763 mmHg 76%
    22:00 +15°C° 0 mm 2 mps 762 mmHg 78%
    23:00 +15°C° 0 mm 2 mps 762 mmHg 79%

    21 June, Friday

    Time Temperature Precipitation Wind Pressure Humidity
    00:00 +14°C° 0 mm 2 mps 762 mmHg 80%
    01:00 +14°C° 0 mm 2 mps 762 mmHg 82%
    02:00 +13°C° 0 mm 2 mps 762 mmHg 78%
    03:00 +12°C° 0 mm 3 mps 762 mmHg 75%
    04:00 +11°C° 0 mm 3 mps 761 mmHg 71%
    05:00 +11°C° 0 mm 3 mps 762 mmHg 69%
    06:00 +10°C° 0 mm 3 mps 762 mmHg 68%
    07:00 +10°C° 0 mm 3 mps 763 mmHg 66%
    08:00 +12°C° 0 mm 3 mps 763 mmHg 57%
    09:00 +13°C° 0 mm 3 mps 763 mmHg 49%
    10:00 +16°C° 0 mm 3 mps 763 mmHg 40%
    11:00 +17°C° 0 mm 3 mps 762 mmHg 36%
    12:00 +18°C° 0 mm 3 mps 762 mmHg 31%
    13:00 +20°C° 0 mm 3 mps 761 mmHg 26%
    14:00 +19°C° 0 mm 3 mps 761 mmHg 29%
    15:00 +19°C° 0 mm 2 mps 761 mmHg 32%
    16:00 +19°C° 0 mm 2 mps 761 mmHg 34%
    17:00 +17°C° 0 mm 3 mps 762 mmHg 42%
    18:00 +14°C° 0 mm 3 mps 763 mmHg 49%
    19:00 +13°C° 0 mm 3 mps 764 mmHg 56%
    20:00 +12°C° 0 mm 3 mps 764 mmHg 58%
    21:00 +11°C° 0 mm 3 mps 764 mmHg 59%
    22:00 +11°C° 0 mm 3 mps 764 mmHg 60%
    23:00 +10°C° 0 mm 2 mps 764 mmHg 61%

    22 June, Saturday

    Time Temperature Precipitation Wind Pressure Humidity
    00:00 +9°C° 0 mm 2 mps 764 mmHg 62%
    01:00 +9°C° 0 mm 2 mps 764 mmHg 63%
    02:00 +9°C° 0 mm 2 mps 763 mmHg 62%
    03:00 +9°C° 0 mm 2 mps 763 mmHg 62%
    04:00 +9°C° 0 mm 2 mps 763 mmHg 62%
    05:00 +9°C° 0 mm 2 mps 763 mmHg 63%
    06:00 +9°C° 0 mm 2 mps 764 mmHg 64%
    07:00 +9°C° 0 mm 3 mps 764 mmHg 66%
    08:00 +11°C° 0 mm 3 mps 764 mmHg 63%
    09:00 +14°C° 0 mm 3 mps 764 mmHg 61%
    10:00 +17°C° 0 mm 4 mps 764 mmHg 58%
    11:00 +18°C° 0 mm 4 mps 764 mmHg 55%
    12:00 +19°C° 0 mm 4 mps 763 mmHg 52%
    13:00 +20°C° 0 mm 5 mps 763 mmHg 49%
    14:00 +20°C° 0 mm 5 mps 763 mmHg 51%
    15:00 +19°C° 0 mm 4 mps 763 mmHg 53%
    16:00 +19°C° 0 mm 4 mps 763 mmHg 55%
    17:00 +17°C° 0 mm 4 mps 763 mmHg 61%
    18:00 +15°C° 0 mm 4 mps 764 mmHg 67%
    19:00 +14°C° 0 mm 4 mps 765 mmHg 73%
    20:00 +13°C° 0.1 mm 3 mps 765 mmHg 75%
    21:00 +13°C° 0.1 mm 3 mps 765 mmHg 78%
    22:00 +12°C° 0.1 mm 3 mps 765 mmHg 81%
    23:00 +12°C° 0 mm 3 mps 765 mmHg 82%
    Show more